Regional Weather Roundup
Issued by NWS Goodland, KS

Home | Current Version | Previous Version | Text Only | Print | Product List | Glossary On
Versions: 1 2 3 4 5 6 7 8 9 10 11 12 13 14 15 16 17 18 19 20 21 22 23 24 25 26 27 28 29 30 31 32 33 34 35 36 37 38 39 40 41 42 43 44 45 46 47 48 49 50
479
ASUS43 KGLD 271108
RWRGLD

GOODLAND FORECAST AREA HOURLY WEATHER ROUNDUP
NATIONAL WEATHER SERVICE GOODLAND KS
500 AM MDT TUE JUN 27 2017

...OFFICIAL OBSERVATIONS...

CITY           SKY/WX    TMP DP  RH WIND       PRES   REMARKS
GOODLAND KS    MOCLDY    58  58 100 SE8       30.04R
HILL CITY KS   CLOUDY    61  61 100 E12       30.04F
IMPERIAL NEB   PTCLDY    60  57  89 SE12      30.03F
MCCOOK NEB     PTCLDY    59  59 100 E10       30.03F
AKRON CO       MOCLDY    60  57  89 SE20G25   30.03F
BURLINGTON CO  CLOUDY    60  59  96 S10       30.06S
LIMON CO       CLOUDY    56  56 100 SE7       30.09S FOG
$$

...UNOFFICIAL OBSERVATIONS...

CITY           SKY/WX    TMP DP  RH WIND       PRES   REMARKS
LENORA KS        N/A     59  32  36 MISG        N/A
NORTON KS      CLOUDY    57  55  94 E10       30.04F
SHARON SPRINGS   N/A     59  57  94 S5G12       N/A
TRENTON NEB      N/A     59  32  36 SE6         N/A
KIT CARSON CO    N/A     55  52  89 CALM        N/A
YUMA CO        CLOUDY    59  52  77 SE12G20   30.04F
$$




USA.gov is the U.S. government's official web portal to all federal, state and local government web resources and services.